,,Stat6,,Stat2,,Stat8,,Stat9,,Stat10,,Wind1,,Wind1,
time,status,PA1M_AVG,status,PR1M_SUM,status,RH1M_AVG,status,SR1M_AVG,status,TA1M_AVG,status,W1dAve1m,status,W1sAve1m,
2004-12-21, 00:00:00,VALID,917.152,VALID,0,VALID,98.5227,VALID,0.0169808,VALID,18.2157,VALID,107,VALID,0.937678,
2004-12-21, 00:01:00,VALID,917.143,VALID,0,VALID,98.5481,VALID,0.0339617,VALID,18.213,VALID,99,VALID,0.865278,
2004-12-21, 00:02:00,VALID,917.145,VALID,0,VALID,98.5977,VALID,0,VALID,18.1897,VALID,103,VALID,0.997266,
2004-12-21, 00:03:00,VALID,917.142,VALID,0,VALID,98.6447,VALID,0,VALID,18.1906,VALID,102,VALID,0.867006,
2004-12-21, 00:04:00,VALID,917.137,VALID,0,VALID,98.7693,VALID,-0.0169808,VALID,18.174,VALID,99,VALID,0.945117,
2004-12-21, 00:05:00,VALID,917.154,VALID,0,VALID,98.8202,VALID,0.0169808,VALID,18.1774,VALID,111,VALID,1.01528,
2004-12-21, 00:06:00,VALID,917.15,VALID,0,VALID,98.8482,VALID,0.0169808,VALID,18.1643,VALID,117,VALID,0.73601,
2004-12-21, 00:07:00,VALID,917.151,VALID,0,VALID,98.9156,VALID,0.0169808,VALID,18.1675,VALID,129,VALID,0.914063,
2004-12-21, 00:08:00,VALID,917.142,VALID,0,VALID,98.9944,VALID,0,VALID,18.1643,VALID,123,VALID,1.107,
2004-12-21, 00:09:00,VALID,917.142,VALID,0,VALID,98.9957,VALID,0,VALID,18.1712,VALID,124,VALID,0.969618,
2004-12-21, 00:10:00,VALID,917.147,VALID,0,VALID,98.9703,VALID,-0.0169808,VALID,18.1747,VALID,98,VALID,0.788517,
2004-12-21, 00:11:00,VALID,917.141,VALID,0,VALID,99.0249,VALID,0,VALID,18.1643,VALID,112,VALID,0.961846,
2004-12-21, 00:12:00,VALID,917.127,VALID,0,VALID,99.0109,VALID,0,VALID,18.1542,VALID,107,VALID,0.829167,
2004-12-21, 00:13:00,VALID,917.117,VALID,0,VALID,99.0313,VALID,0,VALID,18.1606,VALID,102,VALID,0.584604,
2004-12-21, 00:14:00,VALID,917.115,VALID,0,VALID,99.0275,VALID,-0.0169808,VALID,18.1518,VALID,108,VALID,0.652902,
2004-12-21, 00:15:00,VALID,917.111,VALID,0,VALID,99.0555,VALID,0,VALID,18.1484,VALID,116,VALID,0.585938,
2004-12-21, 00:16:00,VALID,917.099,VALID,0,VALID,99.0911,VALID,-0.0169808,VALID,18.1325,VALID,129,VALID,0.927431,
2004-12-21, 00:17:00,VALID,917.084,VALID,0,VALID,99.1559,VALID,-0.0339617,VALID,18.1228,VALID,117,VALID,1.07143,
2004-12-21, 00:18:00,VALID,917.079,VALID,0,VALID,99.1343,VALID,-0.0169808,VALID,18.1392,VALID,113,VALID,0.89027,
2004-12-21, 00:19:00,VALID,917.079,VALID,0,VALID,99.0694,VALID,-0.0169808,VALID,18.1322,VALID,113,VALID,1.02402,
2004-12-21, 00:20:00,VALID,917.077,VALID,0,VALID,99.0198,VALID,-0.0339617,VALID,18.1392,VALID,117,VALID,1.04249,
2004-12-21, 00:21:00,VALID,917.064,VALID,0,VALID,98.9804,VALID,-0.0169808,VALID,18.1458,VALID,119,VALID,0.882813,
2004-12-21, 00:22:00,VALID,917.062,VALID,0,VALID,98.9194,VALID,0,VALID,18.1486,VALID,114,VALID,1.02076,
2004-12-21, 00:23:00,VALID,917.043,VALID,0,VALID,98.8736,VALID,0,VALID,18.1518,VALID,124,VALID,1.12729,
2004-12-21, 00:24:00,VALID,917.033,VALID,0,VALID,98.796,VALID,-0.0169808,VALID,18.1712,VALID,111,VALID,1.17245,
2004-12-21, 00:25:00,VALID,917.014,VALID,0,VALID,98.6829,VALID,0,VALID,18.1807,VALID,119,VALID,1.1935,
2004-12-21, 00:26:00,VALID,916.989,VALID,0,VALID,98.5862,VALID,0,VALID,18.207,VALID,119,VALID,1.54996,
2004-12-21, 00:27:00,VALID,916.988,VALID,0,VALID,98.4018,VALID,0,VALID,18.2358,VALID,111,VALID,1.50521,
2004-12-21, 00:28:00,VALID,916.96,VALID,0,VALID,98.1857,VALID,0,VALID,18.2616,VALID,97,VALID,1.19749,
2004-12-21, 00:29:00,VALID,916.951,VALID,0,VALID,98.0661,VALID,-0.0339617,VALID,18.2577,VALID,105,VALID,1.12686,
2004-12-21, 00:30:00,VALID,916.922,VALID,0,VALID,98.0216,VALID,0,VALID,18.2711,VALID,103,VALID,1.19375,
2004-12-21, 00:31:00,VALID,916.914,VALID,0,VALID,98.0038,VALID,-0.0169808,VALID,18.2676,VALID,110,VALID,1.17607,
2004-12-21, 00:32:00,VALID,916.91,VALID,0,VALID,97.9962,VALID,0,VALID,18.2773,VALID,116,VALID,1.3417,
2004-12-21, 00:33:00,VALID,916.915,VALID,0,VALID,97.9339,VALID,0,VALID,18.2845,VALID,113,VALID,1.0824,
2004-12-21, 00:34:00,VALID,916.913,VALID,0,VALID,97.911,VALID,0,VALID,18.2743,VALID,121,VALID,1.11301,
2004-12-21, 00:35:00,VALID,916.916,VALID,0,VALID,97.8563,VALID,0,VALID,18.2773,VALID,116,VALID,0.727095,
2004-12-21, 00:36:00,VALID,916.912,VALID,0,VALID,97.8805,VALID,0.0169808,VALID,18.2552,VALID,77,VALID,0.616443,
2004-12-21, 00:37:00,VALID,916.913,VALID,0,VALID,97.9186,VALID,-0.0169808,VALID,18.2226,VALID,45,VALID,0.382457,
2004-12-21, 00:38:00,VALID,916.905,VALID,0,VALID,97.9555,VALID,0.0169808,VALID,18.1648,VALID,60,VALID,0.466087,
2004-12-21, 00:39:00,VALID,916.9,VALID,0,VALID,98.1958,VALID,0,VALID,18.1288,VALID,73,VALID,0.627663,
2004-12-21, 00:40:00,VALID,916.886,VALID,0,VALID,98.4858,VALID,0,VALID,18.1129,VALID,76,VALID,0.757626,
2004-12-21, 00:41:00,VALID,916.871,VALID,0,VALID,98.6981,VALID,0,VALID,18.1096,VALID,101,VALID,1.17787,
2004-12-21, 00:42:00,VALID,916.864,VALID,0,VALID,98.6244,VALID,0,VALID,18.1191,VALID,105,VALID,1.12091,
2004-12-21, 00:43:00,VALID,916.858,VALID,0,VALID,98.5608,VALID,0.0169808,VALID,18.1193,VALID,100,VALID,1.00657,
2004-12-21, 00:44:00,VALID,916.857,VALID,0,VALID,98.5341,VALID,0,VALID,18.1062,VALID,101,VALID,0.732279,
2004-12-21, 00:45:00,VALID,916.849,VALID,0,VALID,98.59,VALID,0,VALID,18.0935,VALID,89,VALID,0.745458,
2004-12-21, 00:46:00,VALID,916.831,VALID,0,VALID,98.7401,VALID,0.0169808,VALID,18.087,VALID,106,VALID,0.859874,
2004-12-21, 00:47:00,VALID,916.828,VALID,0,VALID,98.7681,VALID,0.0169808,VALID,18.0644,VALID,111,VALID,0.661585,
2004-12-21, 00:48:00,VALID,916.831,VALID,0,VALID,98.8304,VALID,-0.0509425,VALID,18.0624,VALID,106,VALID,0.456659,
2004-12-21, 00:49:00,VALID,916.819,VALID,0,VALID,98.7732,VALID,-0.0849042,VALID,18.0331,VALID,70,VALID,0.582386,
2004-12-21, 00:50:00,VALID,916.819,VALID,0,VALID,98.6918,VALID,-0.0679233,VALID,17.9948,VALID,40,VALID,0.633854,
2004-12-21, 00:51:00,VALID,916.818,VALID,0,VALID,98.5684,VALID,-0.0849042,VALID,17.9302,VALID,36,VALID,0.895712,
2004-12-21, 00:52:00,VALID,916.812,VALID,0,VALID,98.9207,VALID,-0.101885,VALID,17.8885,VALID,47,VALID,1.25343,
2004-12-21, 00:53:00,VALID,916.798,VALID,0,VALID,99.2653,VALID,-0.101885,VALID,17.8885,VALID,53,VALID,1.37574,
2004-12-21, 00:54:00,VALID,916.79,VALID,0,VALID,99.4916,VALID,-0.0849042,VALID,17.8919,VALID,67,VALID,1.2686,
2004-12-21, 00:55:00,VALID,916.775,VALID,0,VALID,99.4573,VALID,-0.0679233,VALID,17.8848,VALID,68,VALID,0.843006,
2004-12-21, 00:56:00,VALID,916.789,VALID,0,VALID,99.5272,VALID,-0.101885,VALID,17.8979,VALID,68,VALID,0.731468,
2004-12-21, 00:57:00,VALID,916.785,VALID,0,VALID,99.4649,VALID,-0.101885,VALID,17.8721,VALID,55,VALID,0.681641,
2004-12-21, 00:58:00,VALID,916.768,VALID,0,VALID,99.4026,VALID,-0.101885,VALID,17.8555,VALID,41,VALID,0.836301,
2004-12-21, 00:59:00,VALID,916.767,VALID,0,VALID,99.5463,VALID,-0.0849042,VALID,17.8396,VALID,42,VALID,1.02102,
2004-12-21, 01:00:00,VALID,916.731,VALID,0,VALID,99.8095,VALID,-0.101885,VALID,17.8753,VALID,68,VALID,1.13746,
2004-12-21, 01:01:00,VALID,916.721,VALID,0,VALID,99.7447,VALID,-0.101885,VALID,17.921,VALID,100,VALID,1.27396,
2004-12-21, 01:02:00,VALID,916.695,VALID,0,VALID,99.5437,VALID,-0.118866,VALID,17.972,VALID,117,VALID,1.53924,
2004-12-21, 01:03:00,VALID,916.674,VALID,0,VALID,99.2449,VALID,-0.0339617,VALID,18.0195,VALID,122,VALID,1.52307,
2004-12-21, 01:04:00,VALID,916.65,VALID,0,VALID,99.0529,VALID,0.0339617,VALID,18.058,VALID,119,VALID,1.63929,
2004-12-21, 01:05:00,VALID,916.639,VALID,0,VALID,98.7922,VALID,0,VALID,18.1099,VALID,107,VALID,1.33854,
2004-12-21, 01:06:00,VALID,916.622,VALID,0,VALID,98.5125,VALID,-0.0339617,VALID,18.1198,VALID,91,VALID,0.830543,
2004-12-21, 01:07:00,VALID,916.618,VALID,0,VALID,98.3459,VALID,0,VALID,18.1071,VALID,73,VALID,0.607469,
2004-12-21, 01:08:00,VALID,916.601,VALID,0,VALID,98.2785,VALID,0,VALID,18.0481,VALID,68,VALID,0.606889,
2004-12-21, 01:09:00,VALID,916.591,VALID,0,VALID,98.4743,VALID,0,VALID,18.0197,VALID,66,VALID,0.800686,
2004-12-21, 01:10:00,VALID,916.569,VALID,0,VALID,98.6702,VALID,-0.0169808,VALID,17.9941,VALID,89,VALID,0.807813,
2004-12-21, 01:11:00,VALID,916.539,VALID,0,VALID,98.9397,VALID,0,VALID,17.9876,VALID,102,VALID,0.962798,
2004-12-21, 01:12:00,VALID,916.522,VALID,0,VALID,99.016,VALID,0,VALID,17.9805,VALID,104,VALID,1.11357,
2004-12-21, 01:13:00,VALID,916.507,VALID,0,VALID,98.955,VALID,0,VALID,17.9844,VALID,94,VALID,0.886896,
2004-12-21, 01:14:00,VALID,916.49,VALID,0,VALID,98.7465,VALID,0,VALID,17.945,VALID,75,VALID,0.755556,
2004-12-21, 01:15:00,VALID,916.476,VALID,0,VALID,98.7147,VALID,-0.0169808,VALID,17.8936,VALID,65,VALID,0.886446,
2004-12-21, 01:16:00,VALID,916.457,VALID,0,VALID,98.7948,VALID,0,VALID,17.8294,VALID,54,VALID,1.12678,
2004-12-21, 01:17:00,VALID,916.46,VALID,0,VALID,99.0173,VALID,-0.0339617,VALID,17.7773,VALID,60,VALID,1.06917,
2004-12-21, 01:18:00,VALID,916.441,VALID,0,VALID,99.4903,VALID,-0.0679233,VALID,17.7725,VALID,73,VALID,0.942187,
2004-12-21, 01:19:00,VALID,916.436,VALID,0,VALID,99.7777,VALID,-0.101885,VALID,17.7688,VALID,95,VALID,1.01726,
2004-12-21, 01:20:00,VALID,916.425,VALID,0,VALID,99.8438,VALID,0,VALID,17.7969,VALID,100,VALID,1.12682,
2004-12-21, 01:21:00,VALID,916.387,VALID,0,VALID,99.7904,VALID,-0.0169808,VALID,17.8357,VALID,98,VALID,1.20397,
2004-12-21, 01:22:00,VALID,916.388,VALID,0,VALID,99.662,VALID,0,VALID,17.8615,VALID,101,VALID,1.08539,
2004-12-21, 01:23:00,VALID,916.367,VALID,0,VALID,99.4662,VALID,0,VALID,17.8772,VALID,101,VALID,1.12536,
2004-12-21, 01:24:00,VALID,916.356,VALID,0,VALID,99.3276,VALID,0,VALID,17.8903,VALID,101,VALID,1.12664,
2004-12-21, 01:25:00,VALID,916.366,VALID,0,VALID,99.1941,VALID,0,VALID,17.9007,VALID,111,VALID,1.31676,
2004-12-21, 01:26:00,VALID,916.358,VALID,0,VALID,99.1254,VALID,-0.0339617,VALID,17.903,VALID,110,VALID,1.05415,
2004-12-21, 01:27:00,VALID,916.358,VALID,0,VALID,99.0847,VALID,-0.0169808,VALID,17.9132,VALID,128,VALID,0.995206,
2004-12-21, 01:28:00,VALID,916.342,VALID,0,VALID,99.0262,VALID,0,VALID,17.9362,VALID,130,VALID,1.42533,
2004-12-21, 01:29:00,VALID,916.331,VALID,0,VALID,98.9601,VALID,0,VALID,17.9489,VALID,132,VALID,1.48674,
2004-12-21, 01:30:00,VALID,916.312,VALID,0,VALID,98.8749,VALID,0,VALID,17.9708,VALID,133,VALID,1.41673,
2004-12-21, 01:31:00,VALID,916.302,VALID,0,VALID,98.7299,VALID,0,VALID,18.0031,VALID,127,VALID,1.41289,
2004-12-21, 01:32:00,VALID,916.301,VALID,0,VALID,98.5773,VALID,0,VALID,18.0324,VALID,127,VALID,1.31105,
2004-12-21, 01:33:00,VALID,916.291,VALID,0,VALID,98.4336,VALID,-0.0169808,VALID,18.0679,VALID,130,VALID,1.39024,
2004-12-21, 01:34:00,VALID,916.282,VALID,0,VALID,98.2531,VALID,-0.0169808,VALID,18.1036,VALID,135,VALID,1.16264,
2004-12-21, 01:35:00,VALID,916.281,VALID,0,VALID,98.1157,VALID,0,VALID,18.1228,VALID,136,VALID,1.20545,
2004-12-21, 01:36:00,VALID,916.275,VALID,0,VALID,98.0216,VALID,-0.0339617,VALID,18.1424,VALID,133,VALID,1.18914,
2004-12-21, 01:37:00,VALID,916.275,VALID,0,VALID,97.9415,VALID,0.0169808,VALID,18.1581,VALID,127,VALID,0.760789,
2004-12-21, 01:38:00,VALID,916.248,VALID,0,VALID,97.8271,VALID,-0.0169808,VALID,18.165,VALID,130,VALID,0.867001,
2004-12-21, 01:39:00,VALID,916.227,VALID,0,VALID,97.7406,VALID,0,VALID,18.1648,VALID,127,VALID,0.752232,
2004-12-21, 01:40:00,VALID,916.203,VALID,0,VALID,97.7444,VALID,0,VALID,18.165,VALID,118,VALID,0.777699,
2004-12-21, 01:41:00,VALID,916.193,VALID,0,VALID,97.7877,VALID,-0.0169808,VALID,18.1417,VALID,112,VALID,1.10338,
2004-12-21, 01:42:00,VALID,916.166,VALID,0,VALID,97.7673,VALID,0,VALID,18.1615,VALID,117,VALID,1.06012,
2004-12-21, 01:43:00,VALID,916.139,VALID,0,VALID,97.6821,VALID,0,VALID,18.1744,VALID,115,VALID,1.12827,
2004-12-21, 01:44:00,VALID,916.1,VALID,0,VALID,97.5842,VALID,0,VALID,18.1874,VALID,107,VALID,1.21227,
2004-12-21, 01:45:00,VALID,916.08,VALID,0,VALID,97.4494,VALID,0,VALID,18.1904,VALID,101,VALID,1.28544,
2004-12-21, 01:46:00,VALID,916.058,VALID,0,VALID,97.2892,VALID,0,VALID,18.1936,VALID,98,VALID,1.23775,
2004-12-21, 01:47:00,VALID,916.016,VALID,0,VALID,97.1341,VALID,-0.0169808,VALID,18.1904,VALID,92,VALID,1.27235,
2004-12-21, 01:48:00,VALID,916,VALID,0,VALID,97.1404,VALID,-0.0679233,VALID,18.1855,VALID,95,VALID,1.1873,
2004-12-21, 01:49:00,VALID,915.978,VALID,0,VALID,97.2472,VALID,-0.101885,VALID,18.1562,VALID,104,VALID,1.30913,
2004-12-21, 01:50:00,VALID,915.959,VALID,0,VALID,97.3134,VALID,-0.0849042,VALID,18.1433,VALID,105,VALID,1.48819,
2004-12-21, 01:51:00,VALID,915.934,VALID,0,VALID,97.307,VALID,-0.101885,VALID,18.1668,VALID,109,VALID,1.65941,
2004-12-21, 01:52:00,VALID,915.929,VALID,0,VALID,97.2129,VALID,-0.118866,VALID,18.1788,VALID,118,VALID,1.46354,
2004-12-21, 01:53:00,VALID,915.935,VALID,0,VALID,97.162,VALID,-0.101885,VALID,18.1922,VALID,122,VALID,0.923047,
2004-12-21, 01:54:00,VALID,915.927,VALID,0,VALID,97.1926,VALID,-0.101885,VALID,18.1887,VALID,119,VALID,1.16806,
2004-12-21, 01:55:00,VALID,915.927,VALID,0,VALID,97.2205,VALID,-0.101885,VALID,18.1857,VALID,116,VALID,0.930729,
2004-12-21, 01:56:00,VALID,915.92,VALID,0,VALID,97.2574,VALID,-0.101885,VALID,18.1696,VALID,129,VALID,0.743862,
2004-12-21, 01:57:00,VALID,915.909,VALID,0,VALID,97.3337,VALID,-0.101885,VALID,18.1532,VALID,132,VALID,0.919457,
2004-12-21, 01:58:00,VALID,915.904,VALID,0,VALID,97.3909,VALID,-0.101885,VALID,18.1435,VALID,128,VALID,1.05243,
2004-12-21, 01:59:00,VALID,915.904,VALID,0,VALID,97.4456,VALID,-0.101885,VALID,18.1537,VALID,114,VALID,0.623857,
2004-12-21, 02:00:00,VALID,915.892,VALID,0,VALID,97.5028,VALID,-0.118866,VALID,18.15,VALID,109,VALID,0.77309,
2004-12-21, 02:01:00,VALID,915.88,VALID,0,VALID,97.5867,VALID,-0.101885,VALID,18.1438,VALID,106,VALID,0.9288,
2004-12-21, 02:02:00,VALID,915.855,VALID,0,VALID,97.6402,VALID,-0.101885,VALID,18.1343,VALID,124,VALID,1.01372,
2004-12-21, 02:03:00,VALID,915.844,VALID,0,VALID,97.7025,VALID,-0.0509425,VALID,18.1334,VALID,121,VALID,0.929688,
2004-12-21, 02:04:00,VALID,915.824,VALID,0,VALID,97.7177,VALID,-0.0339617,VALID,18.1265,VALID,124,VALID,1.03551,
2004-12-21, 02:05:00,VALID,915.801,VALID,0,VALID,97.7152,VALID,-0.0339617,VALID,18.1295,VALID,125,VALID,0.963068,
2004-12-21, 02:06:00,VALID,915.789,VALID,0,VALID,97.6643,VALID,-0.0169808,VALID,18.1357,VALID,129,VALID,0.725852,
2004-12-21, 02:07:00,VALID,915.766,VALID,0,VALID,97.6389,VALID,-0.0509425,VALID,18.123,VALID,127,VALID,0.99314,
2004-12-21, 02:08:00,VALID,915.748,VALID,0,VALID,97.6618,VALID,-0.0169808,VALID,18.1196,VALID,121,VALID,0.672256,
2004-12-21, 02:09:00,VALID,915.729,VALID,0,VALID,97.719,VALID,0,VALID,18.1136,VALID,126,VALID,0.74272,
2004-12-21, 02:10:00,VALID,915.723,VALID,0,VALID,97.7482,VALID,-0.0339617,VALID,18.0972,VALID,129,VALID,0.772461,
2004-12-21, 02:11:00,VALID,915.7,VALID,0,VALID,97.7355,VALID,-0.0339617,VALID,18.0875,VALID,111,VALID,0.616279,
2004-12-21, 02:12:00,VALID,915.681,VALID,0,VALID,97.7076,VALID,-0.0169808,VALID,18.0813,VALID,109,VALID,0.864955,
2004-12-21, 02:13:00,VALID,915.676,VALID,0,VALID,97.6046,VALID,-0.0339617,VALID,18.0875,VALID,99,VALID,0.793359,
2004-12-21, 02:14:00,VALID,915.662,VALID,0,VALID,97.5855,VALID,0,VALID,18.0847,VALID,82,VALID,0.986753,
2004-12-21, 02:15:00,VALID,915.648,VALID,0,VALID,97.6923,VALID,0,VALID,18.0584,VALID,90,VALID,0.989236,
2004-12-21, 02:16:00,VALID,915.631,VALID,0,VALID,97.7724,VALID,0.0169808,VALID,18.0681,VALID,95,VALID,0.991319,
2004-12-21, 02:17:00,VALID,915.63,VALID,0,VALID,97.7444,VALID,0,VALID,18.0647,VALID,102,VALID,1.05096,
2004-12-21, 02:18:00,VALID,915.636,VALID,0,VALID,97.7635,VALID,-0.0169808,VALID,18.0838,VALID,101,VALID,1.17374,
2004-12-21, 02:19:00,VALID,915.651,VALID,0,VALID,97.7114,VALID,-0.0339617,VALID,18.1073,VALID,103,VALID,1.12986,
2004-12-21, 02:20:00,VALID,915.637,VALID,0,VALID,97.6058,VALID,-0.0339617,VALID,18.1096,VALID,106,VALID,1.03943,
2004-12-21, 02:21:00,VALID,915.613,VALID,0,VALID,97.5092,VALID,-0.0169808,VALID,18.1359,VALID,99,VALID,1.12119,
2004-12-21, 02:22:00,VALID,915.601,VALID,0,VALID,97.424,VALID,-0.0339617,VALID,18.1389,VALID,105,VALID,1.05156,
2004-12-21, 02:23:00,VALID,915.61,VALID,0,VALID,97.4507,VALID,-0.0339617,VALID,18.1422,VALID,104,VALID,1.13077,
2004-12-21, 02:24:00,VALID,915.607,VALID,0,VALID,97.4418,VALID,-0.0339617,VALID,18.1286,VALID,120,VALID,0.931176,
2004-12-21, 02:25:00,VALID,915.597,VALID,0,VALID,97.5372,VALID,-0.0169808,VALID,18.1419,VALID,120,VALID,1.16481,
2004-12-21, 02:26:00,VALID,915.595,VALID,0,VALID,97.5779,VALID,-0.0169808,VALID,18.1744,VALID,122,VALID,1.22619,
2004-12-21, 02:27:00,VALID,915.579,VALID,0,VALID,97.4914,VALID,-0.0169808,VALID,18.1809,VALID,130,VALID,0.55923,
2004-12-21, 02:28:00,VALID,915.571,VALID,0,VALID,97.4748,VALID,-0.0339617,VALID,18.171,VALID,99,VALID,0.71657,
2004-12-21, 02:29:00,VALID,915.568,VALID,0,VALID,97.4418,VALID,-0.0339617,VALID,18.1583,VALID,90,VALID,0.634266,
2004-12-21, 02:30:00,VALID,915.583,VALID,0,VALID,97.5117,VALID,-0.0509425,VALID,18.1262,VALID,90,VALID,0.538517,
2004-12-21, 02:31:00,VALID,915.572,VALID,0,VALID,97.7788,VALID,-0.0509425,VALID,18.084,VALID,128,VALID,0.825149,
2004-12-21, 02:32:00,VALID,915.576,VALID,0,VALID,97.9771,VALID,-0.0509425,VALID,18.0741,VALID,129,VALID,0.829427,
2004-12-21, 02:33:00,VALID,915.585,VALID,0,VALID,98.0712,VALID,-0.0339617,VALID,18.0681,VALID,133,VALID,0.804497,
2004-12-21, 02:34:00,VALID,915.583,VALID,0,VALID,98.1539,VALID,-0.0169808,VALID,18.0582,VALID,133,VALID,0.778045,
2004-12-21, 02:35:00,VALID,915.584,VALID,0,VALID,98.1691,VALID,-0.0339617,VALID,18.0421,VALID,133,VALID,0.491655,
2004-12-21, 02:36:00,VALID,915.582,VALID,0,VALID,98.1793,VALID,-0.0339617,VALID,18.0192,VALID,134,VALID,0.48402,
2004-12-21, 02:37:00,VALID,915.584,VALID,0,VALID,98.2594,VALID,-0.0339617,VALID,17.9934,VALID,136,VALID,0.828646,
2004-12-21, 02:38:00,VALID,915.577,VALID,0,VALID,98.515,VALID,-0.0339617,VALID,17.9678,VALID,145,VALID,1.05697,
2004-12-21, 02:39:00,VALID,915.588,VALID,0,VALID,98.8049,VALID,-0.0169808,VALID,17.9385,VALID,149,VALID,1.20166,
2004-12-21, 02:40:00,VALID,915.609,VALID,0,VALID,99.0071,VALID,0,VALID,17.9319,VALID,153,VALID,1.03379,
2004-12-21, 02:41:00,VALID,915.624,VALID,0,VALID,99.0707,VALID,-0.0169808,VALID,17.9383,VALID,153,VALID,0.974702,
2004-12-21, 02:42:00,VALID,915.624,VALID,0,VALID,99.0911,VALID,-0.0509425,VALID,17.9517,VALID,149,VALID,1.00604,
2004-12-21, 02:43:00,VALID,915.635,VALID,0,VALID,99.0173,VALID,-0.0169808,VALID,17.9678,VALID,141,VALID,0.931691,
2004-12-21, 02:44:00,VALID,915.638,VALID,0,VALID,98.9359,VALID,-0.0169808,VALID,17.9775,VALID,134,VALID,0.952753,
2004-12-21, 02:45:00,VALID,915.638,VALID,0,VALID,98.8367,VALID,-0.0169808,VALID,17.9773,VALID,116,VALID,0.803597,
2004-12-21, 02:46:00,VALID,915.639,VALID,0,VALID,98.7833,VALID,-0.0169808,VALID,17.9805,VALID,105,VALID,0.560192,
2004-12-21, 02:47:00,VALID,915.623,VALID,0,VALID,98.735,VALID,-0.0169808,VALID,17.9807,VALID,115,VALID,0.977471,
2004-12-21, 02:48:00,VALID,915.631,VALID,0,VALID,98.688,VALID,0,VALID,17.9837,VALID,104,VALID,1.07672,
2004-12-21, 02:49:00,VALID,915.61,VALID,0,VALID,98.6613,VALID,0,VALID,18.0098,VALID,99,VALID,1.02363,
2004-12-21, 02:50:00,VALID,915.625,VALID,0,VALID,98.5989,VALID,0,VALID,18.0322,VALID,106,VALID,1.10756,
2004-12-21, 02:51:00,VALID,915.621,VALID,0,VALID,98.5722,VALID,0,VALID,18.0423,VALID,104,VALID,0.885901,
2004-12-21, 02:52:00,VALID,915.596,VALID,0,VALID,98.5583,VALID,-0.0169808,VALID,18.0289,VALID,100,VALID,0.86109,
2004-12-21, 02:53:00,VALID,915.587,VALID,0,VALID,98.5595,VALID,0,VALID,18.0195,VALID,87,VALID,0.912202,
2004-12-21, 02:54:00,VALID,915.587,VALID,0,VALID,98.5786,VALID,-0.0169808,VALID,18.0001,VALID,85,VALID,0.796697,
2004-12-21, 02:55:00,VALID,915.573,VALID,0,VALID,98.5939,VALID,0,VALID,17.9904,VALID,89,VALID,1.14143,
2004-12-21, 02:56:00,VALID,915.578,VALID,0,VALID,98.5405,VALID,-0.0169808,VALID,17.9964,VALID,86,VALID,0.920541,
2004-12-21, 02:57:00,VALID,915.572,VALID,0,VALID,98.59,VALID,0,VALID,18.0029,VALID,102,VALID,1.22184,
2004-12-21, 02:58:00,VALID,915.574,VALID,0,VALID,98.6282,VALID,0,VALID,18.0126,VALID,103,VALID,1.09617,
2004-12-21, 02:59:00,VALID,915.579,VALID,0,VALID,98.5608,VALID,-0.0169808,VALID,18.0068,VALID,112,VALID,1.28887,
2004-12-21, 03:00:00,VALID,915.572,VALID,0,VALID,98.3853,VALID,-0.0169808,VALID,18.0326,VALID,120,VALID,1.25604,
2004-12-21, 03:01:00,VALID,915.585,VALID,0,VALID,98.1412,VALID,-0.0679233,VALID,18.0483,VALID,112,VALID,1.02644,
2004-12-21, 03:02:00,VALID,915.586,VALID,0,VALID,97.9466,VALID,-0.0169808,VALID,18.0711,VALID,106,VALID,0.895461,
2004-12-21, 03:03:00,VALID,915.567,VALID,0,VALID,97.85,VALID,-0.0509425,VALID,18.094,VALID,108,VALID,0.816822,
2004-12-21, 03:04:00,VALID,915.563,VALID,0,VALID,97.8093,VALID,-0.0169808,VALID,18.0935,VALID,112,VALID,1.0665,
2004-12-21, 03:05:00,VALID,915.571,VALID,0,VALID,97.85,VALID,-0.0339617,VALID,18.1034,VALID,102,VALID,0.794829,
2004-12-21, 03:06:00,VALID,915.558,VALID,0,VALID,97.9212,VALID,0,VALID,18.0935,VALID,108,VALID,0.992898,
2004-12-21, 03:07:00,VALID,915.558,VALID,0,VALID,97.9326,VALID,-0.0169808,VALID,18.0905,VALID,110,VALID,1.16921,
2004-12-21, 03:08:00,VALID,915.558,VALID,0,VALID,97.939,VALID,-0.0339617,VALID,18.087,VALID,109,VALID,0.890092,
2004-12-21, 03:09:00,VALID,915.551,VALID,0,VALID,97.9008,VALID,0,VALID,18.0905,VALID,103,VALID,1.17392,
2004-12-21, 03:10:00,VALID,915.543,VALID,0,VALID,97.8233,VALID,-0.0339617,VALID,18.1004,VALID,98,VALID,1.13881,
2004-12-21, 03:11:00,VALID,915.541,VALID,0,VALID,97.7165,VALID,0,VALID,18.1099,VALID,99,VALID,1.16206,
2004-12-21, 03:12:00,VALID,915.527,VALID,0,VALID,97.6656,VALID,-0.0169808,VALID,18.1295,VALID,81,VALID,0.795422,
2004-12-21, 03:13:00,VALID,915.521,VALID,0,VALID,97.7037,VALID,-0.0169808,VALID,18.1288,VALID,91,VALID,0.906783,
2004-12-21, 03:14:00,VALID,915.518,VALID,0,VALID,97.6834,VALID,0,VALID,18.1322,VALID,95,VALID,1.08867,
2004-12-21, 03:15:00,VALID,915.539,VALID,0,VALID,97.5499,VALID,-0.0169808,VALID,18.135,VALID,104,VALID,1.28981,
2004-12-21, 03:16:00,VALID,915.525,VALID,0,VALID,97.3019,VALID,0,VALID,18.1581,VALID,98,VALID,1.22856,
2004-12-21, 03:17:00,VALID,915.515,VALID,0,VALID,97.0794,VALID,0,VALID,18.18,VALID,111,VALID,1.13579,
2004-12-21, 03:18:00,VALID,915.513,VALID,0,VALID,96.8149,VALID,-0.0339617,VALID,18.207,VALID,109,VALID,0.985352,
2004-12-21, 03:19:00,VALID,915.495,VALID,0,VALID,96.6954,VALID,-0.0339617,VALID,18.2132,VALID,104,VALID,0.87793,
2004-12-21, 03:20:00,VALID,915.494,VALID,0,VALID,96.6572,VALID,-0.0679233,VALID,18.2298,VALID,114,VALID,0.812695,
2004-12-21, 03:21:00,VALID,915.488,VALID,0,VALID,96.6979,VALID,-0.0849042,VALID,18.2296,VALID,122,VALID,0.977734,
2004-12-21, 03:22:00,VALID,915.479,VALID,0,VALID,96.7182,VALID,-0.0509425,VALID,18.2231,VALID,116,VALID,0.942264,
2004-12-21, 03:23:00,VALID,915.458,VALID,0,VALID,96.7386,VALID,-0.0339617,VALID,18.2229,VALID,115,VALID,0.841797,
2004-12-21, 03:24:00,VALID,915.422,VALID,0,VALID,96.7513,VALID,-0.0509425,VALID,18.2134,VALID,109,VALID,1.15873,
2004-12-21, 03:25:00,VALID,915.409,VALID,0,VALID,96.7678,VALID,-0.101885,VALID,18.2169,VALID,106,VALID,1.10245,
2004-12-21, 03:26:00,VALID,915.381,VALID,0,VALID,96.7678,VALID,-0.101885,VALID,18.2003,VALID,104,VALID,1.32279,
2004-12-21, 03:27:00,VALID,915.38,VALID,0,VALID,96.7805,VALID,-0.0849042,VALID,18.2074,VALID,100,VALID,1.01395,
2004-12-21, 03:28:00,VALID,915.367,VALID,0,VALID,96.8301,VALID,-0.0679233,VALID,18.1943,VALID,107,VALID,1.17206,
2004-12-21, 03:29:00,VALID,915.368,VALID,0,VALID,96.8568,VALID,-0.0849042,VALID,18.1816,VALID,111,VALID,0.928416,
2004-12-21, 03:30:00,VALID,915.356,VALID,0,VALID,96.8454,VALID,-0.0679233,VALID,18.1585,VALID,104,VALID,1.00558,
2004-12-21, 03:31:00,VALID,915.351,VALID,0,VALID,96.8174,VALID,-0.0679233,VALID,18.1389,VALID,118,VALID,0.809152,
2004-12-21, 03:32:00,VALID,915.342,VALID,0,VALID,96.764,VALID,-0.0509425,VALID,18.1262,VALID,108,VALID,1.04707,
2004-12-21, 03:33:00,VALID,915.335,VALID,0,VALID,96.7335,VALID,-0.0849042,VALID,18.1295,VALID,125,VALID,0.979833,
2004-12-21, 03:34:00,VALID,915.331,VALID,0,VALID,96.7691,VALID,-0.101885,VALID,18.1258,VALID,135,VALID,0.961319,